GFSSW_500_rhum_303.txt.gz
RH
19 19 19 19 19 20 21 22 22 21 21 17 12 10 3 1 2 2 3 4 3 2 2 1 1 1 8 10 9 8 6 5 6 83 74 62 35 36 42 37 51 49 60 55 20
2 2 2 2 2 2 5 10 17 21 23 23 22 17 12 7 1 1 2 3 3 4 3 2 1 1 1 4 12 10 8 6 6 69 87 78 27 33 38 32 48 51 56 57 23
2 2 2 2 2 2 2 1 1 3 9 20 25 26 20 18 9 3 2 2 2 3 4 4 2 2 2 1 2 12 11 8 6 56 53 84 29 24 26 27 48 54 52 56 25
3 3 3 3 2 2 2 2 2 2 1 2 8 24 28 24 19 8 4 2 2 2 3 4 3 2 2 2 1 1 11 11 8 42 8 20 66 25 27 28 38 55 47 53 32
3 4 4 3 3 2 2 2 2 2 2 2 2 2 14 27 28 18 9 3 2 2 2 3 5 5 3 2 2 1 1 12 10 10 8 4 35 47 32 35 39 48 44 58 62
4 4 4 4 3 3 3 2 2 2 2 2 2 2 2 3 25 29 18 9 4 2 2 2 4 6 5 3 2 2 1 2 12 10 6 5 6 25 49 46 45 37 48 66 64
5 5 5 4 4 4 4 3 3 3 3 3 3 2 2 3 2 23 30 17 10 3 2 2 3 4 6 4 3 2 2 1 1 12 12 6 4 4 36 60 42 62 44 66 68
9 9 8 5 5 5 4 4 4 4 4 4 3 3 2 2 3 2 24 32 14 9 5 3 3 3 5 6 4 3 3 2 1 2 11 11 6 5 8 59 53 55 43 55 65
15 13 9 6 5 6 5 5 5 5 5 4 4 4 3 3 3 3 3 34 26 14 10 6 3 3 4 5 5 4 4 4 3 2 2 11 10 6 6 36 57 50 48 51 65
19 14 9 8 7 6 6 5 5 5 5 5 5 4 4 3 3 3 3 12 36 18 14 10 7 4 3 4 5 4 4 4 4 11 2 3 11 10 5 62 32 62 42 30 75
19 12 10 8 8 7 6 6 6 5 5 6 5 4 4 3 3 4 3 4 40 24 14 12 12 5 3 3 4 16 24 4 10 16 7 2 4 11 8 55 25 54 56 35 34
15 12 11 10 9 7 8 8 7 6 5 5 4 3 3 3 3 4 4 4 27 37 23 22 10 8 7 5 5 7 22 22 18 17 4 2 2 3 11 17 12 17 59 56 33
15 13 12 10 11 12 12 10 8 6 5 3 4 5 6 3 2 4 4 5 14 48 27 19 14 15 10 8 7 6 7 8 10 12 4 4 3 3 6 15 14 5 73 61 43
16 14 13 13 13 13 11 10 9 6 4 11 47 25 54 13 4 4 5 7 39 57 37 26 34 24 19 11 8 7 6 8 14 10 5 5 6 16 2 11 51 12 21 96 56
19 18 16 14 16 15 12 12 9 5 8 37 31 26 97 100 85 22 18 28 44 66 53 29 36 31 22 16 14 7 11 11 11 7 5 24 8 13 14 6 77 27 6 10 46
22 20 18 22 19 16 15 13 10 6 6 28 22 20 96 99 81 52 34 40 74 67 67 46 77 56 24 27 20 19 23 14 14 9 8 6 13 14 17 30 39 43 12 4 12
27 25 23 22 21 19 17 14 9 5 6 17 26 45 70 100 73 93 93 99 84 80 71 54 85 47 36 30 28 26 28 24 22 23 7 14 34 23 24 22 27 51 58 22 7
32 28 28 27 25 22 19 15 9 5 4 16 21 66 74 100 100 99 100 87 82 82 80 100 82 56 34 27 26 24 24 30 18 19 23 40 37 36 20 14 12 14 14 12 7
36 35 36 34 30 26 20 17 12 5 4 8 41 42 84 100 100 100 100 91 85 84 86 100 96 82 45 32 34 26 33 16 52 45 42 37 42 38 16 11 6 5 3 8 10
37 39 38 36 31 27 24 20 13 6 5 8 11 38 55 95 100 100 100 100 93 98 96 99 97 100 89 41 33 40 32 70 59 71 56 40 51 49 11 10 8 6 4 3 9
43 44 43 42 34 32 28 22 16 7 5 7 9 16 46 60 94 99 100 100 100 100 100 100 100 100 100 62 37 34 47 54 62 78 66 47 45 66 31 10 8 8 6 4 3
52 50 44 40 39 35 30 25 18 8 5 8 8 10 14 47 64 86 95 100 100 100 100 100 99 100 100 100 66 94 78 48 78 76 75 61 67 58 36 16 10 10 9 7 5
52 51 49 49 45 38 32 30 20 9 6 9 10 9 11 13 38 54 70 88 99 100 100 100 99 99 100 99 83 73 96 83 94 99 86 75 85 76 60 41 16 13 12 10 7
60 58 56 53 47 44 38 33 22 9 8 10 14 11 10 13 10 23 51 58 74 96 100 100 100 100 98 100 100 92 76 62 49 54 54 92 85 73 68 54 29 16 15 14 11
63 61 60 56 52 49 43 36 24 10 9 9 16 16 13 11 14 11 14 51 56 74 95 100 100 100 100 100 100 99 63 52 45 32 100 76 100 76 79 61 32 25 20 19 17
69 68 71 69 60 56 49 38 26 12 10 12 18 22 21 15 11 12 13 16 40 66 86 93 100 100 100 100 100 100 90 64 51 47 42 59 100 100 43 61 51 34 26 24 22
69 71 71 77 75 65 53 40 26 13 13 12 13 21 30 25 20 14 13 13 15 28 55 87 96 99 100 100 100 100 99 90 71 67 55 73 97 91 62 64 61 38 32 30 29

GFSSW_500_rhum_306.txt.gz
RH
2 2 1 2 2 1 1 1 1 2 5 10 17 20 20 18 12 8 1 2 3 2 2 2 1 1 1 3 8 8 8 6 4 5 51 83 96 63 55 61 80 59 30 60 62
2 2 3 3 3 2 2 2 2 2 1 1 2 7 16 21 21 16 10 2 2 2 3 3 3 2 1 1 2 8 8 8 6 6 34 86 90 70 43 54 45 36 38 55 60
3 3 3 4 4 3 3 2 2 2 2 2 2 1 1 6 19 20 19 12 5 1 2 3 3 3 2 2 1 1 7 9 9 7 44 72 91 94 40 43 41 38 46 55 58
4 4 4 4 4 4 3 3 2 2 2 2 2 2 2 1 1 10 28 21 13 7 2 2 2 3 3 2 2 1 1 3 11 9 46 67 91 98 55 44 40 34 38 56 57
6 5 6 6 6 5 4 4 3 3 3 2 2 2 2 2 2 2 4 26 24 14 6 2 2 2 3 4 4 2 1 1 2 12 10 52 60 89 54 58 37 29 32 52 53
8 10 11 11 10 7 5 4 4 4 4 3 3 2 2 2 3 2 2 3 27 25 11 5 2 2 3 4 4 4 2 2 1 5 12 20 43 58 62 24 38 40 43 53 51
10 11 14 14 10 6 5 5 5 5 4 4 3 3 2 4 3 3 2 2 3 28 23 11 4 2 3 3 4 6 4 2 1 1 10 12 28 12 23 24 43 39 37 60 50
17 17 18 12 10 8 7 6 6 5 4 4 4 3 3 3 3 3 2 2 2 2 32 18 11 3 3 3 4 6 6 3 3 1 1 11 13 12 10 34 6 54 42 58 52
20 23 17 12 9 8 7 6 6 6 7 6 5 4 3 3 3 3 3 3 3 3 7 30 17 9 4 3 3 4 5 4 3 3 2 2 3 10 12 6 14 9 54 42 62
22 17 13 10 9 8 8 7 8 6 7 5 4 4 4 4 3 3 4 4 4 3 3 26 24 15 7 3 2 2 4 5 4 4 6 4 2 2 13 11 14 6 36 53 59
17 15 13 12 12 9 8 8 8 6 7 6 5 5 5 4 3 3 3 4 4 4 3 6 34 21 8 3 2 3 4 6 5 7 15 10 5 2 3 14 61 46 8 45 50
18 17 14 14 11 10 9 9 9 9 9 6 6 5 4 3 2 3 4 3 4 4 4 17 25 27 17 13 6 4 5 26 21 16 27 31 27 5 3 7 31 71 87 12 55
19 18 16 15 14 13 11 12 12 14 9 7 6 4 5 6 9 15 13 7 4 4 5 5 2 34 27 20 12 6 4 7 33 33 25 29 35 22 3 6 20 94 95 52 23
22 20 17 17 17 14 16 15 15 14 10 8 7 7 4 8 77 97 57 79 6 6 6 6 12 48 39 25 17 11 4 8 37 36 34 30 20 17 4 3 8 58 88 84 22
24 22 18 16 16 19 17 18 18 15 11 9 6 5 8 18 83 100 100 97 16 15 49 9 34 65 56 31 22 11 20 30 46 44 36 35 36 10 14 6 4 15 63 84 68
25 21 21 27 24 23 23 22 19 15 12 10 6 3 4 29 98 93 79 83 93 100 100 40 77 93 53 85 51 40 60 59 57 51 44 39 40 12 11 25 16 45 49 60 38
30 26 26 24 24 25 26 24 21 18 16 12 7 3 4 20 100 100 100 88 72 100 100 47 100 98 89 94 86 76 67 66 64 61 19 14 42 14 31 25 30 19 72 72 21
35 33 30 29 32 31 29 28 24 22 18 12 5 4 7 19 100 100 100 100 84 92 100 94 100 97 100 97 96 76 74 60 56 38 6 24 39 10 40 34 27 37 58 80 14
38 38 41 41 37 33 31 27 26 24 20 15 6 5 6 9 47 100 91 100 100 96 100 98 74 97 100 100 100 91 85 26 59 63 56 39 29 51 31 29 27 25 22 28 12
44 44 44 41 39 36 34 33 30 27 24 15 7 5 6 6 21 77 100 100 100 100 100 100 100 100 96 100 91 95 75 76 71 70 61 49 38 37 37 24 22 25 22 17 12
54 50 49 47 42 40 38 36 35 31 27 19 9 5 7 7 8 26 87 97 100 100 100 92 95 100 99 100 100 81 86 89 70 61 68 62 45 44 39 35 24 24 19 14 8
58 54 49 44 42 39 41 37 36 34 31 21 11 6 7 8 8 8 21 86 91 100 100 94 92 100 100 95 100 85 89 97 97 79 63 68 74 52 77 56 41 26 16 15 11
56 52 49 47 44 43 45 44 41 40 36 25 13 8 6 10 9 9 10 22 50 73 100 100 95 94 100 100 99 95 99 98 96 88 84 78 91 98 87 62 62 55 35 17 10
52 53 55 54 50 48 49 49 47 43 38 30 17 12 7 7 13 10 8 8 12 34 54 98 100 100 99 100 100 100 100 93 76 73 56 91 93 92 84 77 85 68 43 21 10
54 55 50 47 50 54 52 53 51 47 42 34 21 13 10 6 7 13 12 10 10 9 23 45 88 100 100 100 99 100 100 88 92 67 66 86 100 99 85 100 94 78 57 33 16
53 56 60 56 56 57 60 59 56 52 46 36 25 17 13 10 7 6 13 15 12 12 10 16 50 78 100 100 100 95 100 100 93 76 72 100 100 98 99 97 84 92 75 35 24
55 54 56 62 64 66 66 66 60 56 45 36 24 19 15 11 10 10 13 19 19 13 13 12 19 46 81 96 94 90 100 98 100 100 97 100 97 100 98 63 66 91 88 61 35

GFSSW_500_rhum_312.txt.gz
RH
3 4 4 4 4 4 4 5 5 4 3 3 2 2 2 2 2 1 2 14 21 15 11 8 2 1 2 1 1 1 5 5 4 5 4 16 58 85 69 94 84 94 52 60 87
4 5 6 7 7 8 8 8 8 6 6 4 3 3 2 2 2 2 2 2 3 16 20 15 7 2 1 2 1 1 1 4 6 6 7 17 62 76 58 55 63 75 75 71 72
7 6 8 10 11 12 12 12 11 8 5 4 4 3 3 3 3 2 2 2 2 1 12 24 19 11 4 2 2 2 1 1 1 4 7 8 69 71 63 61 76 73 66 54 63
5 5 8 11 12 12 14 15 12 8 6 5 6 5 5 4 4 3 3 2 2 2 2 2 22 21 13 4 2 2 2 2 2 1 5 8 45 73 66 62 96 76 63 59 56
5 6 9 10 13 16 17 13 10 8 7 6 5 5 5 5 4 4 3 3 3 2 2 2 2 13 22 16 4 2 2 3 3 2 2 8 29 73 62 58 79 100 58 57 42
7 10 14 15 16 14 12 11 8 7 6 5 5 5 5 4 4 3 2 3 3 3 3 3 2 2 2 19 17 5 2 2 3 2 1 3 20 71 73 58 68 57 57 31 37
13 13 13 14 13 11 10 9 9 8 7 5 5 5 5 4 3 3 4 3 3 2 2 2 3 3 2 4 22 17 5 2 2 3 1 2 8 16 66 43 45 41 33 19 27
12 12 11 12 12 12 11 9 8 8 8 6 6 5 5 5 5 6 7 5 4 4 2 3 3 3 3 2 12 23 16 4 2 2 2 2 2 16 62 45 40 40 25 22 29
14 15 14 14 12 12 11 10 10 9 8 7 6 9 9 8 11 10 8 6 5 4 4 3 5 4 4 3 3 15 14 11 3 2 3 3 1 13 64 66 32 48 23 9 22
16 16 16 16 15 16 16 13 11 8 9 11 11 15 14 13 12 12 9 6 4 4 5 4 4 4 5 5 2 1 2 13 9 2 2 4 2 6 61 68 33 40 40 12 9
18 19 19 18 16 16 12 19 18 16 15 15 16 17 14 12 11 10 8 6 6 5 4 4 4 5 3 4 3 3 6 17 18 4 4 3 3 2 52 62 59 33 60 17 12
20 22 24 22 19 17 17 16 19 23 20 18 22 18 15 13 13 11 9 8 6 5 4 3 3 3 4 5 6 5 4 9 20 12 4 3 3 4 15 53 56 42 43 16 15
26 30 32 28 24 22 18 22 22 25 23 21 20 15 13 12 15 14 11 8 6 4 4 7 6 4 2 4 6 6 4 4 17 18 7 6 6 8 6 25 38 58 33 20 8
35 33 34 35 34 32 30 29 28 26 22 17 17 18 12 16 18 14 11 7 4 5 27 41 36 46 14 4 7 6 4 5 28 26 14 7 4 8 8 6 19 31 24 8 4
36 41 36 33 33 31 28 24 24 19 14 10 15 17 22 24 20 13 10 6 4 19 56 39 46 73 58 13 20 5 6 12 29 38 23 26 14 5 13 11 8 9 8 6 2
39 40 40 39 30 22 20 22 18 15 17 18 21 22 28 24 21 14 9 5 13 41 60 63 84 80 68 21 34 12 20 41 55 54 44 17 42 5 20 12 5 5 11 9 3
44 37 31 14 12 16 20 21 17 13 13 14 18 25 29 26 21 13 10 4 28 35 65 74 100 98 100 40 36 61 55 67 85 76 48 18 36 20 25 24 12 11 14 14 12
40 25 11 9 10 14 19 18 13 14 12 13 22 30 33 27 22 15 7 5 53 86 86 96 100 100 100 88 84 93 97 87 93 72 40 25 30 38 39 33 37 30 29 23 23
26 11 8 9 11 13 13 14 16 14 13 13 23 31 33 30 25 16 7 6 31 67 79 72 100 100 100 100 100 98 100 100 97 79 54 36 19 38 44 46 44 41 36 23 16
14 9 9 7 9 11 12 17 19 19 18 19 24 29 32 32 27 18 11 5 13 62 83 69 100 100 96 100 100 100 100 100 100 88 69 64 31 35 46 50 45 38 25 17 16
11 11 11 9 9 11 12 12 17 22 23 23 27 31 35 31 31 22 16 9 5 30 65 71 84 100 100 100 100 98 100 100 99 96 77 66 73 67 64 50 48 35 23 14 13
14 14 13 11 12 13 13 14 17 21 26 28 30 33 34 33 30 26 19 14 9 5 41 65 60 88 100 100 100 100 100 99 100 100 86 82 78 79 70 49 48 44 30 26 20
15 15 15 17 16 15 17 21 23 24 24 23 27 29 32 36 32 28 21 15 11 8 5 24 51 71 97 100 100 100 100 100 100 97 75 84 91 79 73 47 38 40 39 28 23
18 21 22 22 19 18 21 23 22 26 26 25 28 29 30 32 33 29 23 15 13 10 7 7 18 58 71 99 99 100 100 100 100 100 100 100 91 83 86 69 43 34 34 34 39
25 27 28 27 25 23 25 25 25 27 29 27 30 29 30 29 28 26 23 17 13 11 9 6 6 22 62 70 98 100 100 100 99 100 100 100 96 92 84 71 70 49 34 48 49
34 37 35 32 30 28 28 31 31 32 32 30 31 30 34 34 30 26 22 16 14 12 10 8 6 6 17 46 76 98 97 100 100 100 100 100 100 100 82 74 73 82 61 53 51
33 36 40 37 35 32 30 31 32 29 43 38 31 29 32 30 30 25 19 16 14 12 10 8 6 5 6 17 51 57 93 100 100 100 100 100 100 100 95 81 81 86 87 70 62

GFSSW_500_rhum_315.txt.gz
RH
4 5 6 6 7 7 8 8 7 7 8 8 6 5 4 3 2 2 2 2 1 2 12 16 14 10 6 2 1 1 1 3 4 5 5 5 5 14 61 56 73 66 53 48 72
7 6 4 4 4 5 5 6 8 10 11 11 8 5 4 4 3 3 2 2 2 2 1 4 18 18 12 8 3 1 1 1 1 3 6 6 5 18 57 61 63 62 39 53 58
5 4 4 4 5 7 9 9 10 11 13 10 7 5 5 5 4 4 3 3 2 2 2 2 1 6 18 16 10 4 2 1 1 2 2 6 6 16 60 71 70 70 55 59 52
4 4 5 6 8 10 9 8 10 13 11 9 8 7 6 5 4 4 4 4 4 3 3 3 2 2 2 15 20 13 6 2 2 2 2 4 7 10 72 76 81 71 55 43 44
6 8 10 10 11 11 10 10 10 10 8 7 7 6 5 4 4 4 3 3 3 2 3 3 3 3 2 2 8 16 14 7 2 2 2 2 7 8 38 88 83 67 62 52 45
12 11 11 11 10 10 10 10 9 8 7 7 7 7 6 5 5 4 4 4 4 3 3 3 3 3 3 2 2 2 13 17 9 2 2 2 4 8 16 82 76 80 72 56 44
12 12 14 16 14 13 11 9 9 8 8 8 8 8 7 6 5 5 5 5 5 5 4 4 4 3 2 3 3 2 2 5 13 8 2 3 2 6 19 64 51 55 74 59 51
16 13 14 15 15 15 15 13 12 10 10 9 8 8 9 8 8 9 9 9 9 8 8 8 7 6 4 3 2 2 2 1 2 14 8 2 2 2 18 61 61 56 64 63 41
16 14 14 16 18 19 17 15 13 11 11 12 13 14 12 13 14 15 12 11 12 12 11 9 8 6 6 5 3 2 2 2 1 9 19 5 2 2 7 60 73 77 63 42 49
16 16 16 20 22 24 18 16 14 13 14 14 15 18 15 15 15 16 15 12 12 12 12 10 9 7 6 6 4 2 2 2 2 2 20 16 2 2 2 19 73 76 68 50 23
17 20 22 24 26 27 29 26 21 17 18 20 18 16 15 16 12 8 7 7 11 13 12 12 11 9 7 7 6 6 4 3 2 2 7 21 10 2 3 5 38 72 70 41 15
23 26 28 28 26 23 23 20 21 21 18 18 17 12 9 8 6 6 6 6 9 13 14 13 10 8 7 5 6 5 4 3 2 4 4 15 18 2 4 5 11 67 66 59 35
29 36 35 36 30 24 17 11 8 8 9 13 12 8 7 6 6 9 9 11 15 14 12 9 7 6 5 4 4 4 4 3 3 5 4 8 20 8 2 6 20 66 64 66 42
39 40 40 34 22 8 6 6 8 13 13 11 10 10 6 7 12 15 18 19 16 12 9 6 4 6 11 6 11 4 3 3 4 6 6 10 17 16 3 5 10 60 66 60 28
38 36 30 10 6 6 6 7 8 10 10 9 9 8 7 13 16 25 24 20 16 7 5 8 17 40 57 35 43 34 18 3 3 6 7 15 27 19 6 4 10 23 58 48 18
31 32 11 8 7 5 5 7 9 10 12 14 11 12 10 16 20 27 27 20 11 7 25 40 52 62 56 57 42 66 63 16 9 8 43 8 30 21 12 3 7 10 49 49 29
24 18 9 8 7 6 6 7 8 8 10 10 8 8 12 12 22 31 26 18 12 7 14 69 97 81 77 74 77 53 66 52 53 91 79 8 39 20 17 4 6 9 22 26 13
14 11 9 8 6 8 7 7 9 10 10 10 9 9 18 14 21 30 27 20 11 6 10 45 96 96 100 99 97 78 100 97 99 99 12 17 47 21 18 5 6 9 7 7 23
12 11 11 10 11 11 10 8 12 12 12 11 11 9 13 20 28 29 27 23 16 9 5 22 73 100 100 97 72 100 100 100 95 47 26 52 25 28 21 12 12 12 10 14 15
10 10 9 9 10 13 12 13 12 13 14 14 13 12 12 19 29 29 26 25 20 12 6 7 34 90 100 100 97 100 100 100 100 76 92 94 36 38 24 19 36 22 18 24 23
13 12 14 14 14 15 15 15 15 16 18 18 17 14 14 18 31 33 29 26 23 16 10 6 18 59 100 100 100 98 100 100 99 75 90 89 57 44 31 29 47 44 38 31 32
18 19 20 19 18 18 17 17 17 18 19 21 20 16 12 14 19 33 32 28 24 19 13 9 7 26 90 99 100 91 100 96 100 96 100 91 66 45 53 23 42 52 44 39 41
24 22 24 23 24 24 21 23 22 22 21 22 22 19 14 12 16 27 31 29 24 20 14 9 7 11 42 88 100 100 94 100 98 97 94 92 69 56 89 52 32 44 47 40 43
33 31 29 29 29 29 28 29 27 25 25 26 26 23 18 15 19 17 24 28 24 18 15 12 11 8 8 35 80 100 100 97 100 100 100 100 81 52 77 85 45 55 51 43 40
38 36 35 39 38 40 36 34 32 27 30 26 26 26 21 17 16 17 20 23 23 19 16 14 12 10 8 7 46 94 100 100 100 100 100 100 96 64 66 90 72 62 52 51 43
49 46 40 40 42 44 43 41 36 34 33 29 29 26 21 20 18 16 20 21 19 19 18 16 12 10 8 7 8 39 90 100 100 100 100 100 100 99 61 74 86 82 71 57 48
49 55 53 48 51 52 50 48 40 35 37 38 32 24 22 19 18 22 23 20 20 20 18 16 12 10 8 7 7 8 39 92 100 100 100 100 100 100 85 66 73 77 74 68 52